Time,TemperatureF,DewpointF,PressureIn,WindDirection,WindDirectionDegrees,WindSpeedMPH,WindSpeedGustMPH,Humidity,HourlyPrecipIn,Conditions,Clouds,dailyrainin,SoftwareType,DateUTC
2014-12-25 00:00:00,62.1,61.6,29.56,NW,315,1.6,3.1,98,0.00,,,0.54,fowsr,2014-12-25 05:00:00,
2014-12-25 00:05:00,62.1,61.6,29.56,West,270,3.1,4.5,98,0.00,,,0.54,fowsr,2014-12-25 05:05:00,
2014-12-25 00:10:00,62.2,61.8,29.56,SW,225,3.1,6.9,98,0.00,,,0.54,fowsr,2014-12-25 05:10:00,
2014-12-25 00:15:00,62.2,61.8,29.56,SW,225,3.1,5.4,98,0.00,,,0.54,fowsr,2014-12-25 05:15:00,
2014-12-25 00:20:00,62.6,61.9,29.56,SSW,202,2.2,4.5,97,0.00,,,0.54,fowsr,2014-12-25 05:20:00,
2014-12-25 00:25:00,62.6,61.9,29.56,SW,225,3.1,4.5,97,0.00,,,0.54,fowsr,2014-12-25 05:25:00,
2014-12-25 00:30:00,62.6,61.9,29.56,South,180,5.4,9.2,97,0.00,,,0.54,fowsr,2014-12-25 05:30:00,
2014-12-25 00:35:00,62.6,61.9,29.56,WSW,247,3.1,4.5,97,0.01,,,0.56,fowsr,2014-12-25 05:35:00,
2014-12-25 00:40:00,62.6,61.9,29.56,SSW,202,2.2,7.6,97,0.01,,,0.56,fowsr,2014-12-25 05:40:00,
2014-12-25 00:45:00,62.6,61.9,29.56,North,0,2.2,6.0,97,0.01,,,0.56,fowsr,2014-12-25 05:45:00,
2014-12-25 00:50:00,62.6,61.9,29.55,SW,225,2.2,3.8,97,0.01,,,0.56,fowsr,2014-12-25 05:50:00,
2014-12-25 00:55:00,62.6,61.9,29.56,South,180,3.1,3.8,97,0.01,,,0.56,fowsr,2014-12-25 05:55:00,
2014-12-25 01:00:00,62.6,61.9,29.56,WSW,247,3.8,7.6,97,0.01,,,0.56,fowsr,2014-12-25 06:00:00,
2014-12-25 01:05:00,62.6,61.9,29.56,WSW,247,3.8,7.6,97,0.01,,,0.56,fowsr,2014-12-25 06:05:00,
2014-12-25 01:10:00,62.6,61.9,29.56,South,180,2.2,5.4,97,0.01,,,0.56,fowsr,2014-12-25 06:10:00,
2014-12-25 01:15:00,62.6,61.9,29.56,South,180,3.1,3.8,97,0.02,,,0.57,fowsr,2014-12-25 06:15:00,
2014-12-25 01:20:00,62.4,62.0,29.56,South,180,1.6,3.8,98,0.04,,,0.58,fowsr,2014-12-25 06:20:00,
2014-12-25 01:25:00,62.4,62.0,29.56,SW,225,2.2,4.5,98,0.04,,,0.58,fowsr,2014-12-25 06:25:00,
2014-12-25 01:30:00,62.4,62.0,29.57,SW,225,3.1,3.8,98,0.04,,,0.58,fowsr,2014-12-25 06:30:00,
2014-12-25 01:35:00,62.6,61.9,29.56,SW,225,3.8,6.9,97,0.04,,,0.58,fowsr,2014-12-25 06:35:00,
2014-12-25 01:40:00,62.6,61.9,29.56,South,180,4.5,5.4,97,0.04,,,0.59,fowsr,2014-12-25 06:40:00,
2014-12-25 01:45:00,62.4,62.0,29.57,NW,315,3.8,6.0,98,0.04,,,0.59,fowsr,2014-12-25 06:45:00,
2014-12-25 01:50:00,62.4,62.0,29.57,SSW,202,2.2,4.5,98,0.04,,,0.59,fowsr,2014-12-25 06:50:00,
2014-12-25 01:55:00,62.4,62.0,29.57,SW,225,2.2,3.8,98,0.04,,,0.59,fowsr,2014-12-25 06:55:00,
2014-12-25 02:00:00,62.2,61.8,29.58,SW,225,3.8,8.3,98,0.04,,,0.59,fowsr,2014-12-25 07:00:00,
2014-12-25 02:05:00,62.2,61.8,29.58,WSW,247,2.2,4.5,98,0.04,,,0.59,fowsr,2014-12-25 07:05:00,
2014-12-25 02:10:00,62.2,61.8,29.57,West,270,2.2,3.8,98,0.04,,,0.59,fowsr,2014-12-25 07:10:00,
2014-12-25 02:15:00,62.2,61.8,29.58,SE,135,1.6,3.1,98,0.04,,,0.59,fowsr,2014-12-25 07:15:00,
2014-12-25 02:20:00,62.1,61.6,29.59,NW,315,3.1,4.5,98,0.04,,,0.60,fowsr,2014-12-25 07:20:00,
2014-12-25 02:25:00,62.1,61.6,29.59,SW,225,3.1,3.8,98,0.04,,,0.60,fowsr,2014-12-25 07:25:00,
2014-12-25 02:30:00,62.1,61.6,29.59,SW,225,4.5,6.0,98,0.02,,,0.60,fowsr,2014-12-25 07:30:00,
2014-12-25 02:35:00,61.9,61.4,29.59,SW,225,3.8,6.0,98,0.02,,,0.60,fowsr,2014-12-25 07:35:00,
2014-12-25 02:40:00,61.7,61.3,29.59,South,180,2.2,4.5,98,0.04,,,0.61,fowsr,2014-12-25 07:40:00,
2014-12-25 02:45:00,61.3,60.9,29.60,WSW,247,3.8,5.4,98,0.02,,,0.61,fowsr,2014-12-25 07:45:00,
2014-12-25 02:50:00,61.2,60.7,29.59,SW,225,3.8,6.9,98,0.02,,,0.61,fowsr,2014-12-25 07:50:00,
2014-12-25 02:55:00,60.8,60.4,29.58,South,180,2.2,3.8,98,0.02,,,0.61,fowsr,2014-12-25 07:55:00,
2014-12-25 03:00:00,60.3,60.0,29.58,SW,225,1.6,3.1,99,0.02,,,0.61,fowsr,2014-12-25 08:00:00,
2014-12-25 03:05:00,60.3,60.0,29.58,SW,225,1.6,3.1,99,0.02,,,0.61,fowsr,2014-12-25 08:05:00,
2014-12-25 03:10:00,59.4,59.1,29.58,SW,225,2.2,3.8,99,0.02,,,0.61,fowsr,2014-12-25 08:10:00,
2014-12-25 03:15:00,58.8,58.6,29.59,SSW,202,3.8,5.4,99,0.02,,,0.61,fowsr,2014-12-25 08:15:00,
2014-12-25 03:20:00,58.5,58.2,29.60,SSW,202,2.2,4.5,99,0.02,,,0.61,fowsr,2014-12-25 08:20:00,
2014-12-25 03:25:00,58.3,57.4,29.60,SW,225,1.6,3.8,96,0.01,,,0.61,fowsr,2014-12-25 08:25:00,
2014-12-25 03:30:00,58.1,56.8,29.62,SW,225,3.1,4.5,94,0.01,,,0.61,fowsr,2014-12-25 08:30:00,
2014-12-25 03:35:00,58.1,56.3,29.62,NW,315,3.1,3.8,92,0.01,,,0.61,fowsr,2014-12-25 08:35:00,
2014-12-25 03:40:00,57.9,55.7,29.62,SW,225,3.1,5.4,90,0.01,,,0.61,fowsr,2014-12-25 08:40:00,
2014-12-25 03:45:00,57.4,54.0,29.60,SW,225,4.5,6.0,85,0.00,,,0.60,fowsr,2014-12-25 08:45:00,
2014-12-25 03:50:00,57.2,53.1,29.61,SW,225,3.8,6.9,82,0.00,,,0.60,fowsr,2014-12-25 08:50:00,
2014-12-25 03:55:00,56.8,52.5,29.63,NW,315,3.1,5.4,81,0.00,,,0.59,fowsr,2014-12-25 08:55:00,
2014-12-25 04:00:00,56.7,52.3,29.63,SW,225,3.8,6.9,81,0.00,,,0.59,fowsr,2014-12-25 09:00:00,
2014-12-25 04:05:00,56.5,52.4,29.63,West,270,2.2,3.8,82,0.00,,,0.59,fowsr,2014-12-25 09:05:00,
2014-12-25 04:10:00,55.9,52.1,29.62,SW,225,3.1,6.9,83,0.00,,,0.58,fowsr,2014-12-25 09:10:00,
2014-12-25 04:15:00,55.8,52.1,29.62,West,270,3.8,5.4,84,0.00,,,0.58,fowsr,2014-12-25 09:15:00,
2014-12-25 04:20:00,55.4,52.0,29.62,SW,225,3.8,5.4,85,0.00,,,0.57,fowsr,2014-12-25 09:20:00,
2014-12-25 04:25:00,55.0,51.7,29.62,West,270,2.2,3.8,85,0.01,,,0.58,fowsr,2014-12-25 09:25:00,
2014-12-25 04:30:00,54.9,51.5,29.62,West,270,2.2,3.1,85,0.01,,,0.58,fowsr,2014-12-25 09:30:00,
2014-12-25 04:35:00,54.5,51.4,29.63,WSW,247,2.2,3.8,86,0.01,,,0.58,fowsr,2014-12-25 09:35:00,
2014-12-25 04:40:00,54.3,51.2,29.64,SW,225,2.2,5.4,86,0.01,,,0.57,fowsr,2014-12-25 09:40:00,
2014-12-25 04:45:00,54.3,51.2,29.64,WSW,247,2.2,3.8,86,0.01,,,0.57,fowsr,2014-12-25 09:45:00,
2014-12-25 04:50:00,54.3,51.2,29.64,West,270,1.6,3.1,86,0.01,,,0.57,fowsr,2014-12-25 09:50:00,
2014-12-25 04:55:00,54.1,51.3,29.64,SW,225,2.2,3.1,87,0.01,,,0.56,fowsr,2014-12-25 09:55:00,
2014-12-25 05:00:00,54.0,51.3,29.65,West,270,1.6,3.1,88,0.01,,,0.56,fowsr,2014-12-25 10:00:00,
2014-12-25 05:05:00,54.0,51.3,29.64,West,270,1.6,3.1,88,0.01,,,0.56,fowsr,2014-12-25 10:05:00,